Tracking 35030 objects as of 11-Aug-2026
HD Live streaming from Space Station
objects crossing your sky now

SALYUT 7 DEB


SALYUT 7 DEB is no longer on orbit


NORAD ID: 16166
Int'l Code: 1982-033FS
Launch date: April 19, 1982
Source: Commonwealth of Independent States (former USSR) (CIS)
Launch site: TYURATAM MISSILE AND SPACE COMPLEX (TTMTR)
Decay date: 1987-01-15

Note: This is SATELLITE DEBRIS
Your satellite tracking list
Your tracking list is empty




NASA's NSSDC Master Catalog

Two Line Element Set (TLE):
1 16166U 82033 FS 87015.02375081  .03981276 +55699-4 +25540-3 0  9996
2 16166 051.6246 191.1356 0011349 338.0291 022.0320 16.40732847273593
Source of the keplerian elements: AFSPC